| time (UTC) | temp F | wind direction | speed MPH | gust MPH | rain 1hr in | rain 24hr in | rain mn in | humidity % | barometer mb |
| 20260903213143 | 49 | 220 | 2.0 | 9.0 | 0.00 | 0.00 | 0.00 | 10 | 956.9 |
| 20260903212643 | 49 | 220 | 2.0 | 8.0 | 0.00 | 0.00 | 0.00 | 10 | 956.9 |
| 20260903212143 | 49 | 95 | 2.0 | 8.0 | 0.00 | 0.00 | 0.00 | 10 | 956.9 |
| 20260903211643 | 49 | 70 | 2.0 | 9.0 | 0.00 | 0.00 | 0.00 | 10 | 956.8 |
| 20260903211143 | 49 | 131 | 2.0 | 9.0 | 0.00 | 0.00 | 0.00 | 10 | 956.8 |
| 20260903210643 | 49 | 87 | 2.0 | 7.0 | 0.00 | 0.00 | 0.00 | 10 | 956.8 |
| 20260903210143 | 49 | 48 | 2.0 | 6.0 | 0.00 | 0.00 | 0.00 | 10 | 956.9 |
| 20260903205643 | 49 | 122 | 2.0 | 6.0 | 0.00 | 0.00 | 0.00 | 10 | 957.0 |
| 20260903205143 | 49 | 81 | 2.0 | 6.0 | 0.00 | 0.00 | 0.00 | 10 | 956.9 |
| 20260903204642 | 49 | 110 | 2.0 | 8.0 | 0.00 | 0.00 | 0.00 | 10 | 956.9 |
| 20260903204142 | 49 | 137 | 2.0 | 9.0 | 0.00 | 0.00 | 0.00 | 10 | 957.0 |
| 20260903203642 | 49 | 92 | 2.0 | 9.0 | 0.00 | 0.00 | 0.00 | 10 | 956.9 |
| 20260903203142 | 49 | 69 | 2.0 | 8.0 | 0.00 | 0.00 | 0.00 | 10 | 957.0 |
| 20260903202642 | 49 | 164 | 3.0 | 8.0 | 0.00 | 0.00 | 0.00 | 10 | 957.0 |
| 20260903202142 | 49 | 120 | 3.0 | 9.0 | 0.00 | 0.00 | 0.00 | 10 | 956.9 |
| 20260903201642 | 49 | 57 | 2.0 | 11.0 | 0.00 | 0.00 | 0.00 | 10 | 956.9 |
| 20260903201142 | 49 | 153 | 2.0 | 11.0 | 0.00 | 0.00 | 0.00 | 10 | 957.0 |
| 20260903200642 | 49 | 55 | 2.0 | 8.0 | 0.00 | 0.00 | 0.00 | 10 | 956.9 |
| 20260903200142 | 49 | 143 | 2.0 | 7.0 | 0.00 | 0.00 | 0.00 | 10 | 957.0 |
| 20260903195642 | 49 | 104 | 2.0 | 7.0 | 0.00 | 0.00 | 0.00 | 10 | 957.0 |
| 20260903195142 | 49 | 144 | 2.0 | 8.0 | 0.00 | 0.00 | 0.00 | 10 | 956.9 |
| 20260903194642 | 49 | 57 | 2.0 | 9.0 | 0.00 | 0.00 | 0.00 | 10 | 957.1 |
| 20260903194142 | 49 | 89 | 2.0 | 9.0 | 0.00 | 0.00 | 0.00 | 10 | 957.1 |
| 20260903193642 | 49 | 85 | 1.0 | 9.0 | 0.00 | 0.00 | 0.00 | 10 | 957.1 |
| 20260903193142 | 49 | 125 | 1.0 | 5.0 | 0.00 | 0.00 | 0.00 | 10 | 957.1 |
| 20260903192612 | 50 | 71 | 1.0 | 7.0 | 0.00 | 0.00 | 0.00 | 10 | 957.0 |
| 20260903192112 | 49 | 108 | 2.0 | 8.0 | 0.00 | 0.00 | 0.00 | 10 | 957.0 |
| 20260903191611 | 50 | 162 | 3.0 | 9.0 | 0.00 | 0.00 | 0.00 | 10 | 957.0 |
| 20260903191111 | 50 | 9 | 3.0 | 9.0 | 0.00 | 0.00 | 0.00 | 10 | 957.0 |
| 20260903190611 | 50 | 237 | 3.0 | 9.0 | 0.00 | 0.00 | 0.00 | 10 | 957.1 |
| 20260903190111 | 50 | 130 | 3.0 | 9.0 | 0.00 | 0.00 | 0.00 | 10 | 957.1 |
| 20260903185611 | 50 | 215 | 3.0 | 9.0 | 0.00 | 0.00 | 0.00 | 10 | 957.1 |
| 20260903185111 | 50 | 139 | 3.0 | 9.0 | 0.00 | 0.00 | 0.00 | 10 | 957.1 |
| 20260903184611 | 50 | 79 | 3.0 | 11.0 | 0.00 | 0.00 | 0.00 | 10 | 957.1 |
| 20260903184111 | 50 | 100 | 3.0 | 11.0 | 0.00 | 0.00 | 0.00 | 10 | 957.1 |
| 20260903183611 | 50 | 164 | 2.0 | 11.0 | 0.00 | 0.00 | 0.00 | 10 | 957.1 |
| 20260903183111 | 50 | 37 | 2.0 | 11.0 | 0.00 | 0.00 | 0.00 | 10 | 957.1 |
| 20260903182611 | 50 | 128 | 2.0 | 8.0 | 0.00 | 0.00 | 0.00 | 10 | 956.9 |
| 20260903182111 | 51 | 178 | 2.0 | 8.0 | 0.00 | 0.00 | 0.00 | 10 | 957.1 |
| 20260903181611 | 51 | 91 | 2.0 | 7.0 | 0.00 | 0.00 | 0.00 | 10 | 957.1 |
| 20260903181110 | 51 | 86 | 2.0 | 7.0 | 0.00 | 0.00 | 0.00 | 10 | 957.0 |
| 20260903180610 | 51 | 119 | 2.0 | 10.0 | 0.00 | 0.00 | 0.00 | 10 | 957.1 |
| 20260903180110 | 50 | 132 | 3.0 | 10.0 | 0.00 | 0.00 | 0.00 | 10 | 957.1 |
| 20260903175610 | 51 | 103 | 3.0 | 10.0 | 0.00 | 0.00 | 0.00 | 10 | 957.1 |
| 20260903175110 | 50 | 204 | 3.0 | 9.0 | 0.00 | 0.00 | 0.00 | 10 | 957.1 |
| 20260903174610 | 51 | 112 | 2.0 | 7.0 | 0.00 | 0.00 | 0.00 | 10 | 957.1 |
| 20260903174110 | 50 | 137 | 3.0 | 8.0 | 0.00 | 0.00 | 0.00 | 10 | 957.1 |
| 20260903173610 | 51 | 80 | 3.0 | 11.0 | 0.00 | 0.00 | 0.00 | 10 | 957.0 |
| 20260903173110 | 51 | 101 | 2.0 | 11.0 | 0.00 | 0.00 | 0.00 | 10 | 957.0 |
| 20260903172610 | 51 | 261 | 2.0 | 9.0 | 0.00 | 0.00 | 0.00 | 10 | 957.1 |
| 20260903172110 | 51 | 49 | 2.0 | 9.0 | 0.00 | 0.00 | 0.00 | 10 | 957.1 |
| 20260903171610 | 51 | 141 | 2.0 | 9.0 | 0.00 | 0.00 | 0.00 | 10 | 957.0 |
| 20260903171110 | 51 | 70 | 2.0 | 7.0 | 0.00 | 0.00 | 0.00 | 10 | 957.0 |
| 20260903170610 | 51 | 187 | 2.0 | 7.0 | 0.00 | 0.00 | 0.00 | 99 | 957.0 |
| 20260903170110 | 50 | 23 | 2.0 | 6.0 | 0.00 | 0.00 | 0.00 | 99 | 957.0 |
| 20260903165610 | 51 | 135 | 3.0 | 9.0 | 0.00 | 0.00 | 0.00 | 99 | 957.0 |
| 20260903165110 | 51 | 273 | 3.0 | 9.0 | 0.00 | 0.00 | 0.00 | 99 | 957.1 |
| 20260903164609 | 51 | 240 | 3.0 | 10.0 | 0.00 | 0.00 | 0.00 | 98 | 957.0 |
| 20260903164109 | 51 | 108 | 3.0 | 10.0 | 0.00 | 0.00 | 0.00 | 98 | 957.1 |
| 20260903163609 | 51 | 100 | 3.0 | 9.0 | 0.00 | 0.00 | 0.00 | 98 | 957.0 |
| 20260903163109 | 51 | 84 | 3.0 | 11.0 | 0.00 | 0.00 | 0.00 | 98 | 956.9 |
| 20260903162609 | 51 | 114 | 3.0 | 11.0 | 0.00 | 0.00 | 0.00 | 98 | 957.0 |
| 20260903162109 | 51 | 116 | 3.0 | 11.0 | 0.00 | 0.00 | 0.00 | 97 | 957.0 |
| 20260903161609 | 51 | 178 | 3.0 | 11.0 | 0.00 | 0.00 | 0.00 | 96 | 957.0 |
| 20260903161109 | 51 | 157 | 2.0 | 11.0 | 0.00 | 0.00 | 0.00 | 96 | 957.0 |
| 20260903160609 | 51 | 91 | 2.0 | 11.0 | 0.00 | 0.00 | 0.00 | 97 | 957.0 |
| 20260903160039 | 51 | 115 | 3.0 | 9.0 | 0.00 | 0.00 | 0.00 | 97 | 957.1 |
| 20260903155539 | 51 | 115 | 3.0 | 9.0 | 0.00 | 0.00 | 0.00 | 97 | 957.1 |
| 20260903155039 | 51 | 107 | 3.0 | 11.0 | 0.00 | 0.00 | 0.00 | 97 | 957.2 |
| 20260903154539 | 51 | 179 | 3.0 | 11.0 | 0.00 | 0.00 | 0.00 | 96 | 957.1 |
| 20260903154039 | 51 | 143 | 3.0 | 9.0 | 0.00 | 0.00 | 0.00 | 95 | 957.1 |
| 20260903153539 | 51 | 107 | 3.0 | 9.0 | 0.00 | 0.00 | 0.00 | 95 | 957.2 |
| 20260903153039 | 51 | 181 | 3.0 | 9.0 | 0.00 | 0.00 | 0.00 | 95 | 957.1 |
| 20260903152538 | 51 | 2 | 2.0 | 11.0 | 0.00 | 0.00 | 0.00 | 95 | 957.2 |
| 20260903152038 | 51 | 110 | 3.0 | 11.0 | 0.00 | 0.00 | 0.00 | 97 | 957.2 |
| 20260903151538 | 51 | 110 | 3.0 | 12.0 | 0.00 | 0.00 | 0.00 | 97 | 957.3 |
| 20260903151038 | 51 | 150 | 3.0 | 12.0 | 0.00 | 0.00 | 0.00 | 97 | 957.3 |
| 20260903150538 | 51 | 75 | 3.0 | 11.0 | 0.00 | 0.00 | 0.00 | 97 | 957.2 |
| 20260903150038 | 51 | 91 | 3.0 | 8.0 | 0.00 | 0.00 | 0.00 | 97 | 957.2 |
| 20260903145538 | 51 | 124 | 3.0 | 9.0 | 0.00 | 0.00 | 0.00 | 97 | 957.2 |
| 20260903145038 | 50 | 188 | 2.0 | 9.0 | 0.00 | 0.00 | 0.00 | 97 | 957.3 |
| 20260903144538 | 51 | 130 | 2.0 | 8.0 | 0.00 | 0.00 | 0.00 | 96 | 957.3 |
| 20260903144038 | 50 | 65 | 3.0 | 9.0 | 0.00 | 0.00 | 0.00 | 95 | 957.4 |
| 20260903143538 | 50 | 147 | 3.0 | 10.0 | 0.00 | 0.00 | 0.00 | 94 | 957.4 |
| 20260903143038 | 50 | 132 | 3.0 | 12.0 | 0.00 | 0.00 | 0.00 | 94 | 957.5 |
| 20260903142538 | 50 | 112 | 3.0 | 12.0 | 0.00 | 0.00 | 0.00 | 93 | 957.5 |
| 20260903142037 | 50 | 185 | 3.0 | 11.0 | 0.00 | 0.00 | 0.00 | 92 | 957.6 |
| 20260903141537 | 50 | 154 | 3.0 | 10.0 | 0.00 | 0.00 | 0.00 | 93 | 957.6 |
| 20260903141037 | 50 | 136 | 3.0 | 13.0 | 0.00 | 0.00 | 0.00 | 91 | 957.5 |
| 20260903140537 | 50 | 131 | 3.0 | 13.0 | 0.00 | 0.00 | 0.00 | 91 | 957.6 |
| 20260903140037 | 50 | 132 | 3.0 | 12.0 | 0.00 | 0.00 | 0.00 | 89 | 957.6 |
| 20260903135537 | 50 | 130 | 3.0 | 9.0 | 0.00 | 0.00 | 0.00 | 89 | 957.7 |
| 20260903135037 | 50 | 82 | 3.0 | 11.0 | 0.00 | 0.00 | 0.00 | 89 | 957.7 |
| 20260903134537 | 50 | 109 | 3.0 | 11.0 | 0.00 | 0.00 | 0.00 | 90 | 957.7 |
| 20260903134038 | 50 | 108 | 3.0 | 12.0 | 0.00 | 0.00 | 0.00 | 90 | 957.8 |
| 20260903133537 | 51 | 154 | 3.0 | 13.0 | 0.00 | 0.00 | 0.00 | 88 | 957.7 |
| 20260903133037 | 51 | 138 | 3.0 | 13.0 | 0.00 | 0.00 | 0.00 | 86 | 957.6 |
| 20260903132537 | 51 | 142 | 3.0 | 11.0 | 0.00 | 0.00 | 0.00 | 87 | 957.7 |
| 20260903132037 | 51 | 116 | 4.0 | 11.0 | 0.00 | 0.00 | 0.00 | 86 | 957.8 |
| 20260903131537 | 51 | 171 | 4.0 | 18.0 | 0.00 | 0.00 | 0.00 | 85 | 957.7 |
| 20260903131037 | 51 | 143 | 4.0 | 18.0 | 0.00 | 0.00 | 0.00 | 81 | 957.7 |
| 20260903130537 | 51 | 145 | 4.0 | 13.0 | 0.00 | 0.00 | 0.00 | 82 | 957.7 |
| 20260903130037 | 51 | 68 | 4.0 | 16.0 | 0.00 | 0.00 | 0.00 | 84 | 957.8 |
| 20260903125537 | 52 | 121 | 4.0 | 16.0 | 0.00 | 0.00 | 0.00 | 84 | 957.6 |
| 20260903125037 | 52 | 134 | 4.0 | 11.0 | 0.00 | 0.00 | 0.00 | 82 | 958.0 |
| 20260903124536 | 53 | 143 | 3.0 | 11.0 | 0.00 | 0.00 | 0.00 | 81 | 957.7 |
| 20260903124036 | 53 | 165 | 3.0 | 15.0 | 0.00 | 0.00 | 0.00 | 81 | 957.7 |
| 20260903123536 | 53 | 89 | 4.0 | 16.0 | 0.00 | 0.00 | 0.00 | 82 | 957.7 |
| 20260903123036 | 53 | 109 | 4.0 | 16.0 | 0.00 | 0.00 | 0.00 | 82 | 957.8 |
| 20260903122536 | 53 | 101 | 4.0 | 16.0 | 0.00 | 0.00 | 0.00 | 80 | 957.8 |
| 20260903122036 | 53 | 114 | 4.0 | 14.0 | 0.00 | 0.00 | 0.00 | 80 | 957.9 |
| 20260903121536 | 53 | 106 | 4.0 | 14.0 | 0.00 | 0.00 | 0.00 | 82 | 957.8 |
| 20260903121036 | 52 | 61 | 4.0 | 21.0 | 0.00 | 0.00 | 0.00 | 87 | 957.8 |
| 20260903120536 | 52 | 86 | 5.0 | 21.0 | 0.00 | 0.00 | 0.00 | 84 | 957.8 |
| 20260903120036 | 52 | 336 | 5.0 | 21.0 | 0.00 | 0.00 | 0.00 | 80 | 957.6 |
| 20260903115536 | 53 | 146 | 5.0 | 16.0 | 0.00 | 0.00 | 0.00 | 82 | 957.8 |
| 20260903115036 | 52 | 196 | 5.0 | 16.0 | 0.00 | 0.00 | 0.00 | 79 | 957.8 |
| 20260903114536 | 52 | 88 | 5.0 | 13.0 | 0.00 | 0.00 | 0.00 | 81 | 957.7 |
| 20260903114036 | 52 | 112 | 4.0 | 13.0 | 0.00 | 0.00 | 0.00 | 81 | 957.8 |
| 20260903113536 | 52 | 127 | 5.0 | 14.0 | 0.00 | 0.00 | 0.00 | 79 | 957.7 |
| 20260903113035 | 52 | 99 | 5.0 | 24.0 | 0.00 | 0.00 | 0.00 | 78 | 957.9 |
| 20260903112535 | 52 | 41 | 5.0 | 24.0 | 0.00 | 0.00 | 0.00 | 76 | 957.8 |
| 20260903112035 | 53 | 124 | 5.0 | 15.0 | 0.00 | 0.00 | 0.00 | 76 | 957.7 |
| 20260903111535 | 54 | 105 | 5.0 | 15.0 | 0.00 | 0.00 | 0.00 | 74 | 957.7 |
| 20260903111035 | 53 | 152 | 5.0 | 15.0 | 0.00 | 0.00 | 0.00 | 78 | 957.6 |
| 20260903110535 | 54 | 89 | 5.0 | 14.0 | 0.00 | 0.00 | 0.00 | 80 | 957.7 |
| 20260903110035 | 53 | 66 | 6.0 | 20.0 | 0.00 | 0.00 | 0.00 | 82 | 957.7 |
| 20260903105535 | 52 | 175 | 6.0 | 20.0 | 0.00 | 0.00 | 0.00 | 82 | 957.7 |
| 20260903105035 | 53 | 203 | 5.0 | 20.0 | 0.00 | 0.00 | 0.00 | 81 | 957.5 |
| 20260903104535 | 53 | 204 | 6.0 | 23.0 | 0.00 | 0.00 | 0.00 | 80 | 957.6 |
| 20260903104035 | 53 | 130 | 7.0 | 23.0 | 0.00 | 0.00 | 0.00 | 80 | 957.6 |
| 20260903103535 | 53 | 220 | 6.0 | 23.0 | 0.00 | 0.00 | 0.00 | 78 | 957.6 |
| 20260903103035 | 55 | 202 | 5.0 | 17.0 | 0.00 | 0.00 | 0.00 | 76 | 957.7 |
| 20260903102535 | 56 | 127 | 5.0 | 25.0 | 0.00 | 0.00 | 0.00 | 73 | 957.6 |
| 20260903102035 | 56 | 105 | 5.0 | 25.0 | 0.00 | 0.00 | 0.00 | 71 | 957.4 |
| 20260903101534 | 56 | 63 | 5.0 | 15.0 | 0.00 | 0.00 | 0.00 | 70 | 957.4 |
| 20260903101034 | 58 | 108 | 4.0 | 14.0 | 0.00 | 0.00 | 0.00 | 67 | 957.4 |
| 20260903100534 | 60 | 160 | 4.0 | 12.0 | 0.00 | 0.00 | 0.00 | 66 | 957.4 |
| 20260903100034 | 60 | 128 | 3.0 | 12.0 | 0.00 | 0.00 | 0.00 | 68 | 957.4 |
| 20260903095534 | 60 | 105 | 3.0 | 12.0 | 0.00 | 0.00 | 0.00 | 73 | 957.6 |
| 20260903095034 | 57 | 131 | 3.0 | 12.0 | 0.00 | 0.00 | 0.00 | 75 | 957.6 |
| 20260903094534 | 56 | 123 | 3.0 | 17.0 | 0.00 | 0.00 | 0.00 | 76 | 957.6 |
| 20260903094034 | 54 | 58 | 4.0 | 17.0 | 0.00 | 0.00 | 0.00 | 77 | 957.6 |
| 20260903093534 | 54 | 89 | 4.0 | 16.0 | 0.00 | 0.00 | 0.00 | 78 | 957.6 |
| 20260903093034 | 55 | 51 | 4.0 | 16.0 | 0.00 | 0.00 | 0.00 | 80 | 957.6 |
| 20260903092534 | 55 | 121 | 4.0 | 13.0 | 0.00 | 0.00 | 0.00 | 77 | 957.5 |
| 20260903092034 | 55 | 115 | 5.0 | 15.0 | 0.00 | 0.00 | 0.00 | 78 | 957.5 |
| 20260903091534 | 54 | 102 | 5.0 | 15.0 | 0.00 | 0.00 | 0.00 | 77 | 957.5 |
| 20260903091033 | 55 | 190 | 4.0 | 14.0 | 0.00 | 0.00 | 0.00 | 78 | 957.6 |
| 20260903090533 | 54 | 324 | 4.0 | 12.0 | 0.00 | 0.00 | 0.00 | 79 | 957.6 |
| 20260903090033 | 53 | 221 | 4.0 | 12.0 | 0.00 | 0.00 | 0.00 | 80 | 957.5 |
| 20260903085533 | 53 | 161 | 4.0 | 14.0 | 0.00 | 0.00 | 0.00 | 80 | 957.5 |
| 20260903085033 | 54 | 116 | 4.0 | 14.0 | 0.00 | 0.00 | 0.00 | 80 | 957.4 |
| 20260903084533 | 55 | 244 | 4.0 | 15.0 | 0.00 | 0.00 | 0.00 | 79 | 957.6 |
| 20260903084033 | 55 | 116 | 5.0 | 18.0 | 0.00 | 0.00 | 0.00 | 82 | 957.5 |
| 20260903083533 | 53 | 106 | 5.0 | 18.0 | 0.00 | 0.00 | 0.00 | 82 | 957.4 |
| 20260903083033 | 54 | 136 | 4.0 | 14.0 | 0.00 | 0.00 | 0.00 | 82 | 957.4 |
| 20260903082533 | 53 | 163 | 4.0 | 16.0 | 0.00 | 0.00 | 0.00 | 82 | 957.4 |
| 20260903082033 | 53 | 208 | 4.0 | 16.0 | 0.00 | 0.00 | 0.00 | 85 | 957.5 |
| 20260903081533 | 52 | 177 | 4.0 | 16.0 | 0.00 | 0.00 | 0.00 | 85 | 957.4 |
| 20260903081033 | 52 | 127 | 4.0 | 11.0 | 0.00 | 0.00 | 0.00 | 85 | 957.4 |
| 20260903080533 | 52 | 82 | 4.0 | 11.0 | 0.00 | 0.00 | 0.00 | 85 | 957.4 |
| 20260903080033 | 52 | 70 | 4.0 | 11.0 | 0.00 | 0.00 | 0.00 | 86 | 957.5 |
| 20260903075533 | 52 | 100 | 3.0 | 14.0 | 0.00 | 0.00 | 0.00 | 86 | 957.4 |
| 20260903075033 | 52 | 77 | 3.0 | 14.0 | 0.00 | 0.00 | 0.00 | 86 | 957.4 |
| 20260903074533 | 53 | 210 | 3.0 | 10.0 | 0.00 | 0.00 | 0.00 | 86 | 957.5 |
| 20260903074032 | 52 | 168 | 3.0 | 11.0 | 0.00 | 0.00 | 0.00 | 87 | 957.4 |
| 20260903073532 | 53 | 152 | 3.0 | 11.0 | 0.00 | 0.00 | 0.00 | 86 | 957.4 |
| 20260903073032 | 53 | 137 | 3.0 | 8.0 | 0.00 | 0.00 | 0.00 | 88 | 957.4 |
| 20260903072532 | 51 | 95 | 3.0 | 10.0 | 0.00 | 0.00 | 0.00 | 91 | 957.5 |
| 20260903072032 | 50 | 110 | 3.0 | 10.0 | 0.00 | 0.00 | 0.00 | 92 | 957.6 |
| 20260903071532 | 50 | 89 | 3.0 | 9.0 | 0.00 | 0.00 | 0.00 | 91 | 957.6 |
| 20260903071032 | 50 | 104 | 3.0 | 9.0 | 0.00 | 0.00 | 0.00 | 91 | 957.6 |
| 20260903070532 | 50 | 114 | 3.0 | 9.0 | 0.00 | 0.00 | 0.00 | 90 | 957.6 |
| 20260903070032 | 50 | 78 | 2.0 | 8.0 | 0.00 | 0.00 | 0.00 | 93 | 957.7 |
| 20260903065532 | 50 | 223 | 2.0 | 11.0 | 0.00 | 0.00 | 0.00 | 92 | 957.7 |
| 20260903065032 | 49 | 123 | 2.0 | 11.0 | 0.00 | 0.00 | 0.00 | 94 | 957.6 |
| 20260903064532 | 49 | 91 | 3.0 | 11.0 | 0.00 | 0.00 | 0.00 | 94 | 957.6 |
| 20260903064032 | 49 | 50 | 3.0 | 11.0 | 0.00 | 0.00 | 0.00 | 94 | 957.6 |
| 20260903063532 | 49 | 169 | 3.0 | 12.0 | 0.00 | 0.00 | 0.00 | 95 | 957.6 |
| 20260903063031 | 49 | 143 | 3.0 | 12.0 | 0.00 | 0.00 | 0.00 | 95 | 957.5 |
| 20260903062531 | 48 | 107 | 3.0 | 10.0 | 0.00 | 0.00 | 0.00 | 95 | 957.5 |
| 20260903062031 | 48 | 170 | 3.0 | 11.0 | 0.00 | 0.00 | 0.00 | 95 | 957.5 |
| 20260903061531 | 49 | 107 | 3.0 | 11.0 | 0.00 | 0.00 | 0.00 | 95 | 957.6 |
| 20260903061031 | 48 | 111 | 3.0 | 12.0 | 0.00 | 0.00 | 0.00 | 96 | 957.5 |
| 20260903060531 | 49 | 83 | 4.0 | 13.0 | 0.00 | 0.00 | 0.00 | 96 | 957.6 |
| 20260903060031 | 49 | 120 | 4.0 | 13.0 | 0.00 | 0.00 | 0.00 | 96 | 957.6 |
| 20260903055531 | 49 | 99 | 4.0 | 13.0 | 0.00 | 0.00 | 0.00 | 95 | 957.5 |
| 20260903055031 | 50 | 107 | 3.0 | 13.0 | 0.00 | 0.00 | 0.00 | 94 | 957.4 |
| 20260903054531 | 49 | 148 | 3.0 | 9.0 | 0.00 | 0.00 | 0.00 | 95 | 957.5 |
| 20260903054031 | 49 | 44 | 3.0 | 9.0 | 0.00 | 0.00 | 0.00 | 96 | 957.5 |
| 20260903053531 | 49 | 107 | 3.0 | 12.0 | 0.00 | 0.00 | 0.00 | 95 | 957.4 |
| 20260903053031 | 48 | 104 | 3.0 | 12.0 | 0.00 | 0.00 | 0.00 | 94 | 957.4 |
| 20260903052531 | 48 | 135 | 3.0 | 12.0 | 0.00 | 0.00 | 0.00 | 93 | 957.4 |
| 20260903052031 | 48 | 109 | 3.0 | 13.0 | 0.00 | 0.00 | 0.00 | 92 | 957.2 |
| 20260903051530 | 48 | 114 | 3.0 | 13.0 | 0.00 | 0.00 | 0.00 | 90 | 957.2 |
| 20260903051030 | 50 | 132 | 3.0 | 13.0 | 0.00 | 0.00 | 0.00 | 88 | 957.2 |
| 20260903050530 | 52 | 104 | 2.0 | 8.0 | 0.00 | 0.00 | 0.00 | 87 | 957.4 |
| 20260903050030 | 51 | 119 | 2.0 | 7.0 | 0.00 | 0.00 | 0.00 | 89 | 957.6 |
| 20260903045530 | 48 | 127 | 2.0 | 7.0 | 0.00 | 0.00 | 0.00 | 93 | 957.5 |
| 20260903045030 | 49 | 113 | 2.0 | 8.0 | 0.00 | 0.00 | 0.00 | 92 | 957.4 |
| 20260903044530 | 49 | 123 | 2.0 | 8.0 | 0.00 | 0.00 | 0.00 | 92 | 957.4 |
| 20260903044030 | 48 | 155 | 2.0 | 10.0 | 0.00 | 0.00 | 0.00 | 96 | 957.3 |
| 20260903043530 | 48 | 95 | 2.0 | 10.0 | 0.00 | 0.00 | 0.00 | 97 | 957.4 |
| 20260903043030 | 46 | 112 | 3.0 | 8.0 | 0.00 | 0.00 | 0.00 | 99 | 957.4 |
| 20260903042530 | 45 | 223 | 3.0 | 8.0 | 0.00 | 0.00 | 0.00 | 99 | 957.2 |
| 20260903042030 | 45 | 139 | 2.0 | 7.0 | 0.00 | 0.00 | 0.00 | 98 | 957.2 |
| 20260903041530 | 44 | 38 | 2.0 | 7.0 | 0.00 | 0.00 | 0.00 | 98 | 957.3 |
| 20260903041029 | 44 | 71 | 2.0 | 8.0 | 0.00 | 0.00 | 0.00 | 99 | 957.2 |
| 20260903040529 | 44 | 154 | 2.0 | 8.0 | 0.00 | 0.00 | 0.00 | 99 | 957.2 |
| 20260903040029 | 44 | 93 | 2.0 | 8.0 | 0.00 | 0.00 | 0.00 | 99 | 957.1 |
| 20260903035529 | 44 | 104 | 2.0 | 8.0 | 0.00 | 0.00 | 0.00 | 10 | 957.1 |
| 20260903035029 | 44 | 44 | 3.0 | 11.0 | 0.00 | 0.00 | 0.00 | 10 | 957.1 |
| 20260903034529 | 44 | 64 | 3.0 | 11.0 | 0.00 | 0.00 | 0.00 | 10 | 957.1 |
| 20260903034029 | 44 | 47 | 3.0 | 11.0 | 0.00 | 0.00 | 0.00 | 10 | 957.1 |
| 20260903033529 | 44 | 53 | 3.0 | 11.0 | 0.00 | 0.00 | 0.00 | 10 | 957.1 |
| 20260903033029 | 44 | 43 | 3.0 | 14.0 | 0.00 | 0.00 | 0.00 | 10 | 957.1 |
| 20260903032529 | 44 | 128 | 3.0 | 14.0 | 0.00 | 0.00 | 0.00 | 10 | 957.0 |
| 20260903032029 | 44 | 154 | 3.0 | 11.0 | 0.00 | 0.00 | 0.00 | 10 | 957.2 |
| 20260903031529 | 44 | 93 | 2.0 | 11.0 | 0.00 | 0.00 | 0.00 | 99 | 957.2 |
| 20260903031029 | 44 | 74 | 2.0 | 8.0 | 0.00 | 0.00 | 0.00 | 99 | 957.2 |
| 20260903030529 | 44 | 205 | 2.0 | 7.0 | 0.00 | 0.00 | 0.00 | 99 | 957.2 |
| 20260903030029 | 44 | 119 | 2.0 | 6.0 | 0.00 | 0.00 | 0.00 | 10 | 957.1 |
| 20260903025528 | 44 | 59 | 2.0 | 9.0 | 0.00 | 0.00 | 0.00 | 10 | 957.1 |
| 20260903025028 | 44 | 89 | 2.0 | 9.0 | 0.00 | 0.00 | 0.00 | 99 | 957.1 |
| 20260903024528 | 44 | 88 | 3.0 | 8.0 | 0.00 | 0.00 | 0.00 | 99 | 957.1 |
| 20260903024028 | 44 | 142 | 3.0 | 9.0 | 0.00 | 0.00 | 0.00 | 99 | 957.1 |
| 20260903023528 | 44 | 46 | 3.0 | 9.0 | 0.00 | 0.00 | 0.00 | 99 | 957.1 |
| 20260903023028 | 44 | 135 | 3.0 | 14.0 | 0.00 | 0.00 | 0.00 | 99 | 957.3 |
| 20260903022528 | 44 | 63 | 3.0 | 14.0 | 0.00 | 0.00 | 0.00 | 99 | 957.3 |
| 20260903022028 | 45 | 68 | 3.0 | 8.0 | 0.00 | 0.00 | 0.00 | 99 | 957.2 |
| 20260903021528 | 45 | 82 | 3.0 | 9.0 | 0.00 | 0.00 | 0.00 | 98 | 957.2 |
| 20260903021028 | 45 | 359 | 3.0 | 9.0 | 0.00 | 0.00 | 0.00 | 99 | 957.3 |
| 20260903020528 | 45 | 132 | 3.0 | 7.0 | 0.00 | 0.00 | 0.00 | 98 | 957.3 |
| 20260903020028 | 45 | 2 | 2.0 | 7.0 | 0.00 | 0.00 | 0.00 | 98 | 957.3 |
| 20260903015528 | 44 | 26 | 2.0 | 6.0 | 0.00 | 0.00 | 0.00 | 98 | 957.3 |
| 20260903015028 | 44 | 156 | 2.0 | 8.0 | 0.00 | 0.00 | 0.00 | 98 | 957.2 |
| 20260903014528 | 45 | 85 | 2.0 | 8.0 | 0.00 | 0.00 | 0.00 | 98 | 957.3 |
| 20260903014028 | 45 | 62 | 2.0 | 8.0 | 0.00 | 0.00 | 0.00 | 98 | 957.3 |
| 20260903013527 | 45 | 46 | 2.0 | 8.0 | 0.00 | 0.00 | 0.00 | 98 | 957.3 |
| 20260903013027 | 45 | 71 | 2.0 | 7.0 | 0.00 | 0.00 | 0.00 | 98 | 957.3 |
| 20260903012527 | 45 | 107 | 2.0 | 8.0 | 0.00 | 0.00 | 0.00 | 98 | 957.2 |
| 20260903012027 | 45 | 34 | 2.0 | 8.0 | 0.00 | 0.00 | 0.00 | 98 | 957.2 |
| 20260903011527 | 45 | 151 | 2.0 | 8.0 | 0.00 | 0.00 | 0.00 | 98 | 957.2 |
| 20260903011027 | 45 | 17 | 2.0 | 12.0 | 0.00 | 0.00 | 0.00 | 98 | 957.2 |
| 20260903010527 | 45 | 143 | 2.0 | 12.0 | 0.00 | 0.00 | 0.00 | 98 | 957.2 |
| 20260903010027 | 45 | 123 | 3.0 | 8.0 | 0.00 | 0.00 | 0.00 | 98 | 957.3 |
| 20260903005527 | 45 | 111 | 2.0 | 9.0 | 0.00 | 0.00 | 0.00 | 98 | 957.2 |
| 20260903005027 | 45 | 67 | 2.0 | 9.0 | 0.00 | 0.00 | 0.00 | 98 | 957.1 |
| 20260903004527 | 45 | 132 | 2.0 | 9.0 | 0.00 | 0.00 | 0.00 | 98 | 957.2 |
| 20260903004027 | 45 | 4 | 2.0 | 6.0 | 0.00 | 0.00 | 0.00 | 98 | 957.2 |
| 20260903003527 | 45 | 47 | 2.0 | 10.0 | 0.00 | 0.00 | 0.00 | 98 | 957.2 |
| 20260903003027 | 45 | 87 | 2.0 | 10.0 | 0.00 | 0.00 | 0.00 | 98 | 957.1 |
| 20260903002527 | 45 | 62 | 2.0 | 9.0 | 0.00 | 0.00 | 0.00 | 98 | 957.3 |
| 20260903002027 | 45 | 154 | 2.0 | 8.0 | 0.00 | 0.00 | 0.00 | 98 | 957.2 |
| 20260903001527 | 45 | 114 | 2.0 | 8.0 | 0.00 | 0.00 | 0.00 | 98 | 957.0 |
| 20260903001026 | 45 | 86 | 2.0 | 6.0 | 0.00 | 0.00 | 0.00 | 98 | 957.0 |
| 20260903000526 | 45 | 53 | 2.0 | 6.0 | 0.00 | 0.00 | 0.00 | 98 | 957.0 |
| 20260903000026 | 45 | 83 | 2.0 | 5.0 | 0.00 | 0.00 | 0.00 | 98 | 957.1 |
| 20260902235526 | 45 | 137 | 2.0 | 6.0 | 0.00 | 0.00 | 0.00 | 98 | 957.2 |
| 20260902235026 | 45 | 57 | 2.0 | 6.0 | 0.00 | 0.00 | 0.00 | 98 | 957.0 |
| 20260902234526 | 46 | 114 | 2.0 | 7.0 | 0.00 | 0.00 | 0.00 | 98 | 957.0 |
| 20260902234026 | 46 | 89 | 2.0 | 9.0 | 0.00 | 0.00 | 0.00 | 98 | 957.0 |
| 20260902233526 | 46 | 103 | 3.0 | 9.0 | 0.00 | 0.00 | 0.00 | 98 | 957.1 |
| 20260902233026 | 46 | 89 | 3.0 | 10.0 | 0.00 | 0.00 | 0.00 | 98 | 957.0 |
| 20260902232526 | 46 | 77 | 3.0 | 10.0 | 0.00 | 0.00 | 0.00 | 98 | 957.0 |
| 20260902232026 | 46 | 111 | 3.0 | 9.0 | 0.00 | 0.00 | 0.00 | 97 | 957.0 |
| 20260902231526 | 46 | 122 | 3.0 | 9.0 | 0.00 | 0.00 | 0.00 | 97 | 957.1 |
| 20260902231025 | 46 | 182 | 3.0 | 9.0 | 0.00 | 0.00 | 0.00 | 97 | 957.1 |
| 20260902230526 | 46 | 226 | 3.0 | 8.0 | 0.00 | 0.00 | 0.00 | 97 | 957.1 |
| 20260902230025 | 47 | 264 | 3.0 | 9.0 | 0.00 | 0.00 | 0.00 | 97 | 957.1 |
| 20260902225525 | 47 | 68 | 2.0 | 9.0 | 0.00 | 0.00 | 0.00 | 97 | 957.1 |
| 20260902225025 | 47 | 282 | 3.0 | 11.0 | 0.00 | 0.00 | 0.00 | 96 | 957.2 |
| 20260902224525 | 47 | 73 | 3.0 | 11.0 | 0.00 | 0.00 | 0.00 | 96 | 957.2 |
| 20260902224025 | 47 | 124 | 3.0 | 10.0 | 0.00 | 0.00 | 0.00 | 95 | 957.1 |
| 20260902223525 | 47 | 108 | 3.0 | 9.0 | 0.00 | 0.00 | 0.00 | 95 | 957.1 |
| 20260902223025 | 47 | 111 | 3.0 | 14.0 | 0.00 | 0.00 | 0.00 | 95 | 957.0 |
| 20260902222525 | 48 | 92 | 4.0 | 14.0 | 0.00 | 0.00 | 0.00 | 95 | 957.2 |
| 20260902222025 | 48 | 117 | 4.0 | 11.0 | 0.00 | 0.00 | 0.00 | 95 | 957.0 |
| 20260902221525 | 48 | 199 | 3.0 | 10.0 | 0.00 | 0.00 | 0.00 | 95 | 957.0 |
| 20260902221025 | 48 | 215 | 3.0 | 8.0 | 0.00 | 0.00 | 0.00 | 95 | 957.0 |
| 20260902220525 | 48 | 127 | 3.0 | 8.0 | 0.00 | 0.00 | 0.00 | 95 | 957.0 |
| 20260902220025 | 49 | 200 | 3.0 | 8.0 | 0.00 | 0.00 | 0.00 | 96 | 956.9 |
| 20260902215525 | 49 | 184 | 2.0 | 8.0 | 0.00 | 0.00 | 0.00 | 96 | 956.9 |
| 20260902215025 | 49 | 241 | 2.0 | 8.0 | 0.00 | 0.00 | 0.00 | 96 | 956.9 |
| 20260902214524 | 49 | 251 | 3.0 | 7.0 | 0.00 | 0.00 | 0.00 | 96 | 956.9 |
| 20260902214024 | 49 | 212 | 4.0 | 9.0 | 0.00 | 0.00 | 0.00 | 96 | 956.9 |
| 20260902213524 | 49 | 233 | 3.0 | 9.0 | 0.00 | 0.00 | 0.00 | 96 | 956.9 |